Regional Weather Roundup
Issued by NWS

Home | Current Version | Previous Version | Graphics & Text | Print | Product List | Glossary On
Versions: 1 2 3 4 5 6 7 8 9 10 11 12 13 14 15 16 17 18 19 20 21 22 23 24 25 26 27 28 29 30 31 32 33 34 35 36 37 38 39 40 41 42 43 44 45 46 47 48 49 50
000
ASUS43 KLOT 271812
RWRIL

ILLINOIS REGIONAL WEATHER ROUNDUP
NATIONAL WEATHER SERVICE CHICAGO/ROMEOVILLE IL
100 PM CDT THU AUG 27 2015

NOTE: "FAIR" INDICATES FEW OR NO CLOUDS BELOW 12,000 FEET WITH NO
SIGNIFICANT WEATHER AND/OR OBSTRUCTIONS TO VISIBILITY.

* THESE STATIONS ARE NOT UNDER NWS QUALITY CONTROL. THEY ALSO MAY NOT
  REPORT WEATHER SUCH AS PRECIPITATION OR FOG.

ILZ001-002-007-009-015-016-024-271900-
NORTHWEST ILLINOIS

CITY           SKY/WX    TMP DP  RH WIND       PRES   REMARKS
MOLINE         PTSUNNY   72  59  63 S5        30.17F
6HR MIN TEMP:  54; 6HR MAX TEMP:  72;

STERLING*      MOSUNNY  N/A N/A N/A SW3       30.16F
$$

ILZ003-004-008-010-011-017-018-271900-
NORTH CENTRAL ILLINOIS

CITY           SKY/WX    TMP DP  RH WIND       PRES   REMARKS
ROCKFORD       MOSUNNY   72  55  55 S6        30.20F
6HR MIN TEMP:  52; 6HR MAX TEMP:  73;

$$

ILZ005-006-012>014-019>023-271900-
NORTHEAST ILLINOIS

CITY           SKY/WX    TMP DP  RH WIND       PRES   REMARKS
CHICAGO-OHARE  MOSUNNY   71  52  50 SE5       30.19S
6HR MIN TEMP:  53; 6HR MAX TEMP:  72;

CHICAGO-MIDWAY PTSUNNY   70  53  54 S7        30.19S
6HR MIN TEMP:  59; 6HR MAX TEMP:  71;

AURORA         PTSUNNY   70  55  59 SE3       30.21F
6HR MIN TEMP:  47; 6HR MAX TEMP:  71;

WAUKEGAN       SUNNY     68  54  60 S9        30.19S
6HR MIN TEMP:  53; 6HR MAX TEMP:  69;

DUPAGE AIRPORT MOSUNNY   69  53  56 CALM      30.19F
6HR MIN TEMP:  50; 6HR MAX TEMP:  70;

WHEELING       PTSUNNY   71  52  50 CALM      30.20S
NORTHERLY ISL    N/A     67  53  61 NE3         N/A
$$

LMZ740>746-271900-
SOUTHERN LAKE MICHIGAN

STATION/POSITION SKY/WX   TEMP    WIND        PRES    VSBY  WAVE
                          AIR SEA DIR/SP/G                  HT/PER
                          (F)     (DEG/KT/KT) (MB)    (MI)  (FT/S)
SOUTHERN BUOY              64 67  180/  8/ 10 1022.2F
HARRISON CRIB              63     300/  4/  4   N/A
BURNHAM HARBOR             67      50/  4       N/A
CALUMET HARBOR             65      60/  2/  4   N/A
BURNS HARBOR               66     280/  2/  6 1022.7F
MICHIGAN CITY              65      60/  7/  9   N/A
MICHIGAN CITY 6N           66 71  360/  2/  2   N/A           1
ST. JOSEPH                 66 71  200/  4/  6   N/A           1
$$

ILZ025>027-034>036-040-047-049-050-058-095>099-271900-
WEST-CENTRAL ILLINOIS

CITY           SKY/WX    TMP DP  RH WIND       PRES   REMARKS
QUINCY         PTSUNNY   74  56  53 S9        30.19F
$$

ILZ028>032-037-038-041>044-048-051>054-059>061-271900-
CENTRAL ILLINOIS

CITY           SKY/WX    TMP DP  RH WIND       PRES   REMARKS
BLOOMINGTON    MOSUNNY   72  58  61 VRB3      30.21R
DECATUR        SUNNY     76  58  53 W6        30.19R
PEORIA         MOSUNNY   74  56  53 VRB3      30.19F
6HR MIN TEMP:  55; 6HR MAX TEMP:  75;

SPRINGFIELD    MOSUNNY   76  57  51 CALM      30.19S
6HR MIN TEMP:  52; 6HR MAX TEMP:  76;

TAYLORVILLE    NOT AVBL
$$

ILZ033-039-045-046-055>057-062-063-271900-
EAST-CENTRAL ILLINOIS

CITY           SKY/WX    TMP DP  RH WIND       PRES   REMARKS
CHAMPAIGN      MOSUNNY   75  58  55 VRB3      30.18R
MATTOON        SUNNY     76  55  48 S3        30.16R
$$

ILZ079-100>102-271900-
SOUTHWEST ILLINOIS

CITY           SKY/WX    TMP DP  RH WIND       PRES   REMARKS
ALTON          PTSUNNY   73  59  60 NW6       30.19S
BELLEVILLE     MOSUNNY   76  62  61 VRB5      30.17R
CAHOKIA*       MOSUNNY   77  54  44 W6        30.18R
$$

ILZ064>066-069>071-074>076-080>082-084>086-088>090-092>094-271900-
SOUTH-CENTRAL ILLINOIS

CITY           SKY/WX    TMP DP  RH WIND       PRES   REMARKS
CARBONDALE     MOSUNNY   78  55  44 VRB5      30.16R
6HR MIN TEMP:  54; 6HR MAX TEMP:  78;

MARION         CLOUDY    77  57  50 SW7       30.16R
MT. VERNON     MOSUNNY   79  57  47 SW6       30.18R HX  80
$$

ILZ067-068-072-073-078-083-087-091-271900-
SOUTHEAST ILLINOIS

CITY           SKY/WX    TMP DP  RH WIND       PRES   REMARKS
LAWRENCEVILLE  MOSUNNY   78  56  46 VRB3      30.13S
$$

ABBREVIATIONS USED IN REMARKS
   TC - TEMPERATURE IN CELSIUS
  WCI - WIND CHILL INDEX
   HX - HEAT INDEX
  VSB - VISIBILITY
$$




USA.gov is the U.S. government's official web portal to all federal, state and local government web resources and services.